Location: Emory University Observatory
(33.7903°N, 84.3267°W)
Time: 23:12:47
(UTC-05:00)

OTV 5 (USA 277) - Pass Details

Date: 12 October 2017
Orbit: 404 x 417 km, 43.0° (Epoch: 07 September)

Event Time Altitude Azimuth Distance (km) Brightness Sun altitude
Rises 19:35:22 0° 259° (WSW) 2,345 ? -6.7°
Reaches altitude 10° 19:37:34 10° 267° (W) 1,485 ? -7.2°
Maximum altitude 19:40:43 38° 337° (NNW) 652 ? -7.8°
Drops below altitude 10° 19:43:54 10° 48° (NE) 1,489 ? -8.5°
Enters shadow 19:44:25 - 51° (NE) 1,684 ? -8.6°
